Αρχική σελίδα
METAR-TAF:

METAR-TAF

Αεροδρόμια :

Cape Peel West, Νούναβουτ, Καναδάς

γεωγραφικό πλάτος: 69-02N, γεωγραφικό μήκος: 107-49W, υψόμετρο: 165 μ

Παρών καιρός

Η αναφορά έγινε 56 λεπτά πριν, στις 18:00 UTC
Άνεμος 16 kt από Β
Θερμοκρασία -31°C
Υγρασία 68%
Πίεση 1029 hPa
Λίγα νέφη σε ύψος 6000 πόδια

METAR: CWPX 151800Z AUTO 35016KT ////SM //// FEW060 M31/M35 A3038

Χρόνος: 11:56 (18:56 UTC)


TAF: λείπει

Μετεωρολογικές αναφορές και προγνώσεις για περισσότερα από 4000 αεροδρόμια (δελτία METAR και TAF).

Οι διαθέσιμοι σταθμοί απεικονίζονται στο χάρτη με κίτρινες και κόκκινες κουκκίδες.

Μετακινήστε το ποντίκι πάνω από τις κουκκίδες για να δείτε το όνομα του σταθμού.

Στη συνέχεια, κάντε κλικ για να δείτε τις μετεωρολογικές αναφορές και τις προγνώσεις καιρού.

Για να αλλάξετε το χάρτη: κάντε κλικ στα πράσινα κουμπιά με τον μαύρο σταυρό για να ζουμάρετε, στο πράσινο κουμπί με την παύλα για να αφαιρέσετε το ζουμ ή στα πράσινα βέλη για να αντιπαραβάλλετε χάρτες.


METAR-TAF: